Location: Banff
(51.1667°N, 115.5667°W)
Time: 13:09:29
(UTC+00:00)

Vanguard 1 Rocket - Pass Details

Date: 26 November 2020
Orbit: 655 x 4222 km, 34.3° (Epoch: 23 January)

Event Time Altitude Azimuth Distance (km) Brightness Sun altitude
Rises 15:53:36 0° 274° (W) 6,895 11.4 3.6°
Reaches altitude 10° 16:01:37 10° 255° (WSW) 5,002 10.9 4.5°
Maximum altitude 16:07:31 14° 229° (SW) 3,931 10.6 5.2°
Drops below altitude 10° 16:12:06 10° 200° (SSW) 3,679 10.9 5.7°
Sets 16:16:21 0° 175° (S) 4,103 11.6 6.2°
